Terminal Aerodrome Forecast
Issued by NWS Bismarck, ND

Home | Current Version | Previous Version | Graphics & Text | Print | Product List | Glossary On
Versions: 1 2 3 4 5 6 7 8 9 10 11 12 13 14 15
000
FTUS43 KBIS 231100
TAFBIS
TAF
KBIS 231140Z 2312/2412 07007KT P6SM SKC
     FM231700 14013KT P6SM FEW200
     FM232100 13014KT P6SM VCSH BKN100
     FM240000 11014KT P6SM VCSH BKN050 OVC090=

USA.gov is the U.S. government's official web portal to all federal, state and local government web resources and services.